EW4931 Weather Reports


time (UTC)temp
F
wind
direction
speed
knots
gust
knots
rain 1hr
in
rain 24hr
in
rain mn
in
humidity
%
barometer
mb
20260504050404 40 182 1.7 2.6 0.00 0.00 0.00 89 1004.9
20260504050124 40 188 0.9 3.5 0.00 0.00 0.00 89 1005.0
20260504045403 40 199 0.9 3.5 0.00 0.00 0.00 89 1005.0
20260504044903 40 203 1.7 3.5 0.00 0.00 0.00 88 1005.1
20260504044404 40 185 1.7 3.5 0.00 0.00 0.00 88 1005.1
20260504043904 40 164 1.7 3.5 0.00 0.00 0.00 87 1005.1
20260504043404 41 164 1.7 1.7 0.00 0.00 0.00 87 1005.2
20260504043128 41 164 0.0 0.0 0.00 0.00 0.00 86 1005.3
20260504042404 41 164 0.0 0.0 0.00 0.00 0.00 85 1005.3
20260504041903 41 164 0.0 0.0 0.00 0.00 0.00 84 1005.3
20260504041403 41 164 0.0 0.0 0.00 0.00 0.00 83 1005.2
20260504040903 41 164 0.0 0.0 0.00 0.00 0.00 83 1005.1
20260504040403 42 164 0.0 0.0 0.00 0.00 0.00 81 1005.2
20260504035903 42 164 0.0 0.9 0.00 0.00 0.00 81 1005.2
20260504035404 42 164 0.0 2.6 0.00 0.00 0.00 81 1005.0
20260504034903 42 164 0.9 2.6 0.00 0.00 0.00 80 1005.1
20260504034403 42 164 0.9 1.7 0.00 0.00 0.00 80 1005.2
20260504034123 42 164 0.0 1.7 0.00 0.00 0.00 80 1005.3
20260504033403 42 164 1.7 1.7 0.00 0.00 0.00 80 1005.3
20260504032903 42 164 0.0 0.0 0.00 0.00 0.00 80 1005.4
20260504032621 42 164 0.0 0.0 0.00 0.00 0.00 79 1005.5
20260504031903 42 164 0.0 0.0 0.00 0.00 0.00 79 1005.5
20260504031403 42 164 0.0 0.0 0.00 0.00 0.00 78 1005.6
20260504030903 42 164 0.0 1.7 0.00 0.00 0.00 77 1005.7
20260504030403 42 164 0.0 1.7 0.00 0.00 0.00 77 1005.7
20260504025903 42 164 0.9 0.9 0.00 0.00 0.00 77 1005.8
20260504025403 42 164 0.0 0.9 0.00 0.00 0.00 77 1006.0
20260504024902 42 164 0.0 1.7 0.00 0.00 0.00 76 1006.1
20260504024623 42 164 0.0 1.7 0.00 0.00 0.00 76 1006.2
20260504023904 42 164 0.0 0.9 0.00 0.00 0.00 76 1006.4
20260504023404 42 164 0.0 0.9 0.00 0.00 0.00 76 1006.4
20260504022903 42 164 0.0 1.7 0.00 0.00 0.00 76 1006.5
20260504022403 42 164 1.7 1.7 0.00 0.00 0.00 76 1006.4
20260504022126 42 164 0.0 0.0 0.00 0.00 0.00 77 1006.3
20260504021404 42 164 0.0 0.0 0.00 0.00 0.00 76 1006.2
20260504020903 42 164 0.0 0.0 0.00 0.00 0.00 77 1006.3
20260504020403 42 164 0.0 0.9 0.00 0.00 0.00 76 1006.3
20260504015903 42 164 0.0 1.7 0.00 0.00 0.00 76 1006.4
20260504015403 42 164 0.0 1.7 0.00 0.00 0.00 76 1006.5
20260504014903 42 164 0.9 2.6 0.00 0.00 0.00 76 1006.5
20260504014404 42 164 0.9 2.6 0.00 0.00 0.00 76 1006.5
20260504013903 42 164 0.9 2.6 0.00 0.00 0.00 76 1006.6
20260504013403 42 164 1.7 2.6 0.00 0.00 0.00 76 1006.7
20260504012857 42 164 1.7 2.6 0.00 0.00 0.00 75 1006.6
20260504012350 42 164 1.7 2.6 0.00 0.00 0.00 75 1006.8
20260504011840 42 164 1.7 2.6 0.00 0.00 0.00 75 1006.8
20260504011337 42 164 0.9 2.6 0.00 0.00 0.00 75 1006.8
20260504011105 42 164 1.7 3.5 0.00 0.00 0.00 75 1006.9
20260504010331 42 164 1.7 3.5 0.00 0.00 0.00 75 1006.9
20260504005830 42 165 1.7 5.2 0.00 0.00 0.00 75 1007.0
20260504005330 43 165 1.7 5.2 0.00 0.00 0.00 74 1007.1
20260504004831 43 158 0.9 3.5 0.00 0.00 0.00 74 1007.2
20260504004331 43 158 1.7 3.5 0.00 0.00 0.00 74 1007.2
20260504003831 43 155 1.7 3.5 0.00 0.00 0.00 75 1007.3
20260504003330 43 155 2.6 3.5 0.00 0.00 0.00 75 1007.4
20260504002831 43 165 0.9 2.6 0.00 0.00 0.00 75 1007.3
20260504002330 43 165 0.9 2.6 0.00 0.00 0.00 75 1007.4
20260504001830 43 165 0.9 2.6 0.00 0.00 0.00 76 1007.5
20260504001331 43 165 0.9 1.7 0.00 0.00 0.00 76 1007.5
20260504001056 43 165 0.0 0.0 0.00 0.00 0.00 76 1007.5
20260504000332 43 165 0.0 0.9 0.00 0.00 0.00 77 1007.6
20260503235831 43 165 0.0 2.6 0.00 0.00 0.00 77 1007.6
20260503235331 43 165 1.7 2.6 0.00 0.00 0.00 76 1007.6
20260503235048 43 165 0.9 1.7 0.00 0.00 0.00 76 1007.7
20260503234331 43 165 0.0 1.7 0.00 0.00 0.00 76 1007.8
20260503233831 43 165 0.9 1.7 0.00 0.00 0.00 76 1007.9
20260503233330 43 166 0.0 1.7 0.00 0.00 0.00 77 1007.9
20260503232830 43 166 0.9 2.6 0.00 0.00 0.00 76 1008.0
20260503232324 43 166 1.7 2.6 0.00 0.00 0.00 77 1008.0
20260503231817 43 162 1.7 2.6 0.00 0.00 0.00 77 1008.0
20260503231537 43 162 0.0 1.7 0.00 0.00 0.00 77 1008.0
20260503230814 43 162 0.9 3.5 0.00 0.00 0.00 77 1008.2
20260503230310 43 161 0.9 3.5 0.00 0.00 0.00 76 1008.2
20260503225809 43 178 0.0 1.7 0.00 0.00 0.00 77 1008.1
20260503225308 43 179 0.9 2.6 0.00 0.00 0.00 77 1008.2
20260503225028 43 179 0.9 2.6 0.00 0.00 0.00 77 1008.2
20260503224308 43 179 1.7 2.6 0.00 0.00 0.00 77 1008.3
20260503224026 43 179 0.9 2.6 0.00 0.00 0.00 77 1008.3
20260503223308 43 171 1.7 2.6 0.00 0.00 0.00 78 1008.3
20260503222808 43 171 1.7 2.6 0.00 0.00 0.00 78 1008.3
20260503222308 43 171 1.7 3.5 0.00 0.00 0.00 79 1008.4
20260503221808 43 169 1.7 3.5 0.00 0.00 0.00 79 1008.4
20260503221308 43 154 1.7 2.6 0.00 0.00 0.00 80 1008.5
20260503220808 43 155 0.9 4.3 0.00 0.00 0.00 80 1008.4
20260503220308 43 151 2.6 4.3 0.00 0.00 0.00 80 1008.5
20260503215807 43 128 2.6 4.3 0.00 0.00 0.00 80 1008.4
20260503215307 43 162 1.7 3.5 0.00 0.00 0.00 80 1008.5
20260503214807 43 162 2.6 3.5 0.00 0.00 0.00 80 1008.7
20260503214748 43 147 2.6 3.5 0.00 0.00 0.00 80 1008.6
20260503213807 43 141 1.7 3.5 0.00 0.00 0.00 80 1008.7
20260503213307 43 141 0.0 3.5 0.00 0.00 0.00 80 1008.7
20260503212807 43 140 0.9 4.3 0.00 0.00 0.00 80 1008.8
20260503212306 43 140 1.7 4.3 0.00 0.00 0.00 80 1008.8
20260503211806 43 164 1.7 3.5 0.00 0.00 0.00 80 1008.8
20260503211306 44 169 1.7 3.5 0.00 0.00 0.00 80 1008.9
20260503210807 44 176 1.7 3.5 0.00 0.00 0.00 80 1008.9
20260503210306 44 180 1.7 3.5 0.00 0.00 0.00 80 1008.9
20260503205806 44 157 2.6 3.5 0.00 0.00 0.00 80 1008.9
20260503205533 44 152 0.0 2.6 0.00 0.00 0.00 79 1008.9
20260503204806 44 152 0.0 4.3 0.00 0.00 0.00 79 1008.9
20260503204306 44 152 1.7 4.3 0.00 0.00 0.00 79 1008.9
20260503203806 44 151 1.7 4.3 0.00 0.00 0.00 80 1008.9
20260503203306 44 175 2.6 3.5 0.00 0.00 0.00 80 1008.9
20260503203034 44 176 1.7 3.5 0.00 0.00 0.00 80 1008.8
20260503202305 44 176 1.7 3.5 0.00 0.00 0.00 81 1008.8
20260503201806 44 155 0.9 3.5 0.00 0.00 0.00 81 1009.0
20260503201303 44 151 2.6 3.5 0.00 0.00 0.00 81 1008.9
20260503200803 44 148 2.6 3.5 0.00 0.00 0.00 80 1009.0
20260503200303 44 127 1.7 3.5 0.00 0.00 0.00 81 1009.0
20260503200054 44 127 1.7 3.5 0.00 0.00 0.00 81 1009.0
20260503195304 44 127 2.6 3.5 0.00 0.00 0.00 81 1009.0
20260503194803 44 127 1.7 2.6 0.00 0.00 0.00 81 1009.0
20260503194303 44 140 1.7 2.6 0.00 0.00 0.00 80 1009.0
20260503193805 44 140 1.7 2.6 0.00 0.00 0.00 81 1009.1
20260503193303 44 140 0.9 3.5 0.00 0.00 0.00 81 1009.1
20260503193020 44 141 1.7 3.5 0.00 0.00 0.00 81 1009.1
20260503192302 44 138 2.6 3.5 0.00 0.00 0.00 81 1009.1
20260503191803 44 97 1.7 3.5 0.00 0.00 0.00 82 1009.1
20260503191305 44 93 1.7 3.5 0.00 0.00 0.00 82 1009.1
20260503190805 44 93 2.6 2.6 0.00 0.00 0.00 82 1009.1
20260503190521 44 89 1.7 3.5 0.00 0.00 0.00 82 1009.2
20260503190029 44 87 2.6 3.5 0.00 0.00 0.00 82 1009.2
20260503185306 44 116 1.7 2.6 0.00 0.00 0.00 82 1009.2
20260503184806 44 116 1.7 2.6 0.00 0.00 0.00 82 1009.2
20260503184304 45 116 1.7 2.6 0.00 0.00 0.00 82 1009.2
20260503183805 45 116 1.7 2.6 0.00 0.00 0.00 82 1009.3
20260503183750 45 116 1.7 3.5 0.00 0.00 0.00 82 1009.2
20260503182805 45 111 2.6 3.5 0.00 0.00 0.00 82 1009.2
20260503182305 45 90 3.5 4.3 0.00 0.00 0.00 82 1009.1
20260503182027 45 47 2.6 4.3 0.00 0.00 0.00 82 1009.1
20260503181524 45 130 1.7 3.5 0.00 0.00 0.00 82 1009.1
20260503181251 45 89 1.7 4.3 0.00 0.00 0.00 82 1009.1
20260503180527 45 79 3.5 4.3 0.00 0.00 0.00 82 1009.1
20260503180028 45 107 2.6 3.5 0.00 0.00 0.00 82 1009.1
20260503175305 45 140 1.7 4.3 0.00 0.00 0.00 82 1009.2
20260503174805 45 141 1.7 4.3 0.00 0.00 0.00 81 1009.1
20260503174305 45 96 2.6 4.3 0.00 0.00 0.00 81 1009.1
20260503173805 45 102 1.7 3.5 0.00 0.00 0.00 81 1009.1
20260503173523 45 138 1.7 3.5 0.00 0.00 0.00 81 1009.2
20260503173045 45 138 2.6 3.5 0.00 0.00 0.00 81 1009.2
20260503172528 45 111 2.6 3.5 0.00 0.00 0.00 81 1009.2
20260503171804 45 66 2.6 4.3 0.00 0.00 0.00 81 1009.2
20260503171304 45 92 1.7 4.3 0.00 0.00 0.00 81 1009.2
20260503171024 45 100 3.5 5.2 0.00 0.00 0.00 81 1009.3
20260503170304 45 90 3.5 5.2 0.00 0.00 0.00 80 1009.3
20260503150805 46 103 4.3 6.1 0.00 0.00 0.00 76 1009.4
20260503150304 46 80 3.5 6.1 0.00 0.00 0.00 76 1009.6
20260503140304 46 49 3.5 6.1 0.00 0.00 0.00 75 1010.2
20260503131304 46 39 5.2 7.8 0.00 0.00 0.00 75 1010.3
20260503130804 46 83 5.2 7.8 0.00 0.00 0.00 75 1010.2
20260503130305 46 65 4.3 8.7 0.00 0.00 0.00 75 1010.2
20260503110803 47 51 3.5 9.6 0.00 0.00 0.00 71 1010.5
20260503110304 47 51 7.8 9.6 0.00 0.00 0.00 71 1010.4
20260503090304 46 42 3.5 7.8 0.00 0.00 0.00 75 1010.4
20260503081303 47 71 5.2 8.7 0.00 0.00 0.00 78 1010.0
20260503081024 46 72 5.2 10.4 0.00 0.00 0.00 79 1010.0
20260503080528 46 54 5.2 10.4 0.00 0.00 0.00 79 1010.0
20260503072803 46 66 7.0 11.3 0.00 0.00 0.00 81 1009.8
20260503072305 46 1 6.1 12.2 0.00 0.00 0.00 81 1009.8
20260503072244 46 24 7.8 12.2 0.00 0.00 0.00 81 1009.8
20260503071303 46 66 7.8 11.3 0.00 0.00 0.00 82 1009.6
20260503070802 45 49 6.1 11.3 0.00 0.00 0.00 82 1009.5
20260503070303 45 30 8.7 12.2 0.00 0.00 0.00 82 1009.7
20260503060305 46 51 3.5 11.3 0.00 0.00 0.00 85 1009.4
20260503054803 45 72 2.6 10.4 0.00 0.00 0.00 85 1009.4
20260503054303 46 58 7.8 10.4 0.00 0.00 0.00 85 1009.3
20260503053803 46 44 5.2 10.4 0.00 0.00 0.00 85 1009.4
20260503053303 46 69 4.3 10.4 0.00 0.00 0.00 85 1009.4
20260503052804 46 66 6.1 10.4 0.00 0.00 0.00 86 1009.4